This demonstration page uses our WeatherBlox Daily Observations layout. Learn more.

Left ArrowRight Arrow

Hourly Observations for April 29, 2021

Temp ( °F °C ) Dew Point ( °F °C ) Humidity (%) Winds ( mph kmh ) Pressure ( in mb ) Visibility ( mi km ) Precip ( " mm )
12:53 am 00:53 Clear with Mist and Fog 46 7.8 44 6.7 93 93 WNW 8 13 30.04 1017 6 10 0.00 0.00
1:53 am 01:53 Clear 46 7.8 44 6.7 93 93 WNW 8 13 30.03 1017 9 14 0.00 0.00
2:53 am 02:53 Clear 44 6.7 42 5.6 93 93 WNW 7 11 30.03 1017 10 16 0.00 0.00
3:53 am 03:53 Clear 44 6.7 42 5.6 93 93 NW 8 13 30.03 1017 10 16 0.00 0.00
4:53 am 04:53 Clear 43 6.1 41 5 93 93 WNW 8 13 30.04 1017 10 16 0.00 0.00
5:53 am 05:53 Clear 43 6.1 40 4.4 89 89 NW 8 13 30.05 1018 10 16 0.00 0.00
6:53 am 06:53 Sunny 43 6.1 40 4.4 89 89 WNW 7 11 30.09 1019 10 16 0.00 0.00
7:53 am 07:53 Sunny 48 8.9 44 6.7 86 86 W 7 11 30.10 1019 10 16 0.00 0.00
8:53 am 08:53 Sunny 56 13.3 44 6.7 65 65 NW 9 15 30.11 1020 10 16 0.00 0.00
9:53 am 09:53 Sunny 63 17.2 43 6.1 48 48 NNW 12 19 30.12 1020 10 16 0.00 0.00
10:53 am 10:53 Sunny 65 18.3 43 6.1 45 45 NNW 20 31 30.14 1021 10 16 0.00 0.00
11:53 am 11:53 Sunny 69 20.6 42 5.6 38 38 NNW 20 31 30.15 1021 10 16 0.00 0.00
12:53 pm 12:53 Sunny 70 21.1 38 3.3 31 31 N 22 35 30.16 1022 10 16 0.00 0.00
1:53 pm 13:53 Sunny 70 21.1 36 2.2 29 29 N 23 37 30.17 1022 10 16 0.00 0.00
2:53 pm 14:53 Sunny 72 22.2 35 1.7 26 26 N 20 31 30.17 1022 10 16 0.00 0.00
3:53 pm 15:53 Sunny 72 22.2 33 0.6 24 24 NNW 20 31 30.16 1021 10 16 0.00 0.00
4:53 pm 16:53 Sunny 72 22.2 34 1.1 25 25 N 15 24 30.15 1021 10 16 0.00 0.00
5:53 pm 17:53 Sunny 71 21.7 35 1.7 27 27 N 16 26 30.17 1022 10 16 0.00 0.00
6:53 pm 18:53 Sunny 70 21.1 35 1.7 28 28 N 10 17 30.17 1022 10 16 0.00 0.00
7:53 pm 19:53 Sunny 65 18.3 36 2.2 34 34 N 7 11 30.19 1022 10 16 0.00 0.00
8:53 pm 20:53 Clear 62 16.7 33 0.6 34 34 Calm 30.20 1023 10 16 0.00 0.00
9:53 pm 21:53 Clear 55 12.8 38 3.3 53 53 Calm 30.22 1023 10 16 0.00 0.00
10:53 pm 22:53 Clear 55 12.8 34 1.1 45 45 SSW 3 6 30.22 1024 10 16 0.00 0.00
11:53 pm 23:53 Clear 52 11.1 35 1.7 53 53 SSW 6 9 30.22 1023 10 16 0.00 0.00

Powered by AerisWeather